Regional Weather Roundup
Issued by NWS Sioux Falls, SD

Home | Current Version | Previous Version | Text Only | Print | Product List | Glossary On
Versions: 1 2 3 4 5 6 7 8 9 10 11 12 13 14 15 16 17 18 19 20 21 22 23 24 25 26 27 28 29 30 31 32 33 34 35 36 37 38 39 40 41 42 43 44 45 46 47 48 49 50
000
ASUS43 KFSD 040910
RWRFSD

WEATHER ROUNDUP FOR SE SOUTH DAKOTA/SW MINNESOTA/NW IOWA
NATIONAL WEATHER SERVICE SIOUX FALLS SD
400 AM CDT SAT JUL 04 2015

NOTE: "FAIR" INDICATES FEW OR NO CLOUDS BELOW 12,000 FEET WITH NO
SIGNIFICANT WEATHER AND OR OBSTRUCTIONS TO VISIBILITY.


SDZ038>040-050-052>070-041000-
SOUTHEAST SOUTH DAKOTA

CITY           SKY/WX    TMP DP  RH WIND       PRES   REMARKS
BROOKINGS      CLEAR     63  61  94 CALM      29.98S
CHAMBERLAIN    CLEAR     63  62  98 SE5       29.93S
HURON          CLEAR     65  63  93 SE6       29.92F
MADISON        FAIR      63  63 100 SW6       29.98S
MITCHELL       CLEAR     66  63  90 S6        29.95S
SIOUX FALLS    CLEAR     65  60  84 SW3       29.97S
WINNER         FAIR      69  60  73 S14       29.92F
YANKTON          N/A     61  59  94 SE3       29.96F VSB 3/4
$$

MNZ071-072-080-081-089-090-097-098-041000-
SOUTHWEST MINNESOTA

CITY           SKY/WX    TMP DP  RH WIND       PRES   REMARKS
FAIRMONT       CLEAR     63  54  72 CALM      29.96S
JACKSON        CLEAR     64  57  77 SW6       29.98S
MARSHALL       CLEAR     66  61  82 W6          N/A
MONTEVIDEO     CLEAR     63  63 100 CALM      29.94S FOG
PIPESTONE      CLEAR     61  59  94 CALM      29.98S FOG
REDWOOD FALLS  PTCLDY    66  63  90 SW3       29.94R
TRACY          CLEAR     67  64  89 SW7       29.96S
WINDOM         CLEAR     63  59  88 CALM      29.97S FOG
WORTHINGTON    CLEAR     64  55  72 SW8       29.98S
$$

IAZ001>003-012>014-020>022-031-032-NEZ013-014-SDZ071-041000-
NORTHWEST IOWA

CITY           SKY/WX    TMP DP  RH WIND       PRES   REMARKS
CHEROKEE       CLEAR     55  55 100 CALM      29.99S FOG
DENISON        CLOUDY    54  54 100 CALM      29.98S
ESTHERVILLE    CLEAR     59  56  89 W8        29.97S
LE MARS          N/A     57  57 100 CALM      29.99S
ORANGE CITY    CLEAR     59  55  88 CALM      29.99S
SHELDON        MOCLDY    59  59 100 SW3       29.97S
SIOUX CITY     PTCLDY    59  56  89 SE3       29.98S
SPENCER        CLEAR     58  53  84 W5        29.98S
STORM LAKE     FAIR      59  54  82 SW7       30.00S
$$

ABBREVIATIONS USED IN REMARKS
   TC - TEMPERATURE IN CELSIUS
  WCI - WIND CHILL INDEX
   HX - HEAT INDEX
  VSB - VISIBILITY



USA.gov is the U.S. government's official web portal to all federal, state and local government web resources and services.